FW6924 Weather Reports


Display with metric or nautical units.
time (UTC)temp
F
wind
direction
speed
MPH
gust
MPH
rain 1hr
in
rain 24hr
in
rain mn
in
humidity
%
barometer
mb
20260905061003 78 115 0.0 0.0 0.00 0.00 0.00 94 1012.7
20260905060004 78 115 0.0 1.0 0.00 0.00 0.00 93 1012.7
20260905055000 79 115 0.0 2.0 0.00 0.00 0.00 93 1012.8
20260905054001 79 115 0.0 2.0 0.00 0.00 0.00 93 1013.2
20260905053001 79 115 0.0 0.0 0.00 0.00 0.00 93 1013.2
20260905052001 79 115 0.0 0.0 0.00 0.00 0.00 92 1013.2
20260905051001 79 115 0.0 0.0 0.00 0.00 0.00 92 1013.2
20260905044005 80 115 0.0 0.0 0.00 0.00 0.00 91 1013.4
20260905043003 80 115 0.0 0.0 0.00 0.00 0.00 90 1013.6
20260905042004 80 115 0.0 0.0 0.00 0.00 0.00 90 1013.5
20260905040009 80 115 0.0 3.0 0.00 0.00 0.00 89 1013.3
20260905035003 80 214 0.0 0.0 0.00 0.00 0.00 89 1013.4
20260905034005 80 268 0.0 0.0 0.00 0.00 0.00 88 1013.4
20260905033002 81 268 0.0 2.0 0.00 0.00 0.00 88 1013.4
20260905032008 81 268 0.0 0.0 0.00 0.00 0.00 89 1013.6
20260905030007 81 269 0.0 0.0 0.00 0.00 0.00 88 1013.7
20260905023003 82 276 0.0 0.0 0.00 0.00 0.00 86 1013.9
20260905022005 82 276 0.0 0.0 0.00 0.00 0.00 86 1014.1
20260905021003 83 276 0.0 0.0 0.00 0.00 0.00 85 1014.1
20260905020007 83 276 0.0 0.0 0.00 0.00 0.00 84 1014.0
20260905015003 83 276 0.0 0.0 0.00 0.00 0.00 83 1013.8
20260905014005 84 276 0.0 0.0 0.00 0.00 0.00 83 1013.9
20260905013003 84 276 0.0 1.0 0.00 0.00 0.00 82 1013.7
20260905012005 84 276 1.0 4.0 0.00 0.00 0.00 81 1013.7
20260905011002 85 280 0.0 2.0 0.00 0.00 0.00 81 1013.5
20260905005003 85 280 0.0 1.0 0.00 0.00 0.00 79 1013.6
20260905004003 85 279 0.0 1.0 0.00 0.00 0.00 78 1013.5
20260905003006 85 279 0.0 2.0 0.00 0.00 0.00 77 1013.4
20260905002002 86 279 1.0 3.0 0.00 0.00 0.00 76 1013.1
20260905001003 86 277 1.0 4.0 0.00 0.00 0.00 75 1013.1
20260905000007 86 275 1.0 4.0 0.00 0.00 0.00 75 1012.9
20260904235002 87 292 2.0 4.0 0.00 0.00 0.00 75 1012.7
20260904234005 87 273 3.0 7.0 0.00 0.00 0.00 75 1012.7
20260904233002 88 269 4.0 8.0 0.00 0.00 0.00 75 1012.3
20260904230007 89 261 3.0 7.0 0.00 0.00 0.00 73 1012.2
20260904225002 88 273 4.0 7.0 0.00 0.00 0.00 74 1012.1
20260904224004 88 198 4.0 8.0 0.00 0.00 0.00 72 1011.9
20260904222004 89 229 4.0 11.0 0.00 0.00 0.00 71 1012.2
20260904221002 89 230 4.0 10.0 0.00 0.00 0.00 69 1012.2
20260904215005 90 216 4.0 8.0 0.00 0.00 0.00 70 1012.3
20260904214002 90 214 5.0 10.0 0.00 0.00 0.00 69 1012.1
20260904213005 90 198 6.0 11.0 0.00 0.00 0.00 71 1012.1
20260904212002 91 239 5.0 11.0 0.00 0.00 0.00 72 1012.1
20260904211004 91 240 5.0 10.0 0.00 0.00 0.00 71 1012.1
20260904210005 91 239 5.0 10.0 0.00 0.00 0.00 70 1011.9
20260904205002 91 211 5.0 11.0 0.00 0.00 0.00 70 1011.9
20260904204002 91 202 6.0 10.0 0.00 0.00 0.00 71 1012.1
20260904203002 91 220 5.0 10.0 0.00 0.00 0.00 68 1011.9
20260904202003 91 192 6.0 12.0 0.00 0.00 0.00 67 1012.2
20260904201003 92 198 5.0 12.0 0.00 0.00 0.00 68 1012.4
20260904200006 92 210 5.0 11.0 0.00 0.00 0.00 69 1012.5
20260904194002 92 243 5.0 10.0 0.00 0.00 0.00 67 1012.4
20260904193002 91 191 5.0 11.0 0.00 0.00 0.00 70 1012.6
20260904192002 92 211 5.0 10.0 0.00 0.00 0.00 67 1012.6
20260904191002 92 238 5.0 10.0 0.00 0.00 0.00 68 1012.8
20260904185002 92 213 6.0 14.0 0.00 0.00 0.00 70 1013.2
20260904184002 92 269 5.0 12.0 0.00 0.00 0.00 69 1013.2
20260904183002 92 209 5.0 13.0 0.00 0.00 0.00 67 1013.5
20260904182004 92 254 5.0 10.0 0.00 0.00 0.00 69 1013.6
20260904181002 92 217 3.0 9.0 0.00 0.00 0.00 69 1013.7
20260904180006 91 211 4.0 12.0 0.00 0.00 0.00 71 1013.7
20260904175002 91 159 4.0 10.0 0.00 0.00 0.00 73 1013.7
20260904174004 91 136 3.0 8.0 0.00 0.00 0.00 75 1013.9
20260904173002 88 134 2.0 6.0 0.00 0.00 0.00 79 1014.1
20260904172004 88 198 3.0 6.0 0.00 0.00 0.00 78 1014.2
20260904171002 88 227 3.0 7.0 0.00 0.00 0.00 77 1014.1
20260904170025 87 195 4.0 10.0 0.00 0.00 0.00 77 1014.2
20260904165002 88 215 4.0 7.0 0.00 0.10 0.00 77 1014.1
20260904164002 88 240 5.0 9.0 0.00 0.10 0.00 75 1014.2
20260904163002 89 221 6.0 10.0 0.00 0.10 0.00 73 1014.5
20260904162002 90 223 5.0 10.0 0.00 0.10 0.00 72 1014.5
20260904161002 91 236 5.0 10.0 0.00 0.10 0.00 71 1014.6
20260904155004 90 211 5.0 9.0 0.00 0.10 0.00 71 1014.5
20260904154002 90 202 4.0 9.0 0.00 0.10 0.00 71 1014.5
20260904152002 89 191 3.0 7.0 0.00 0.10 0.00 75 1014.6
20260904151004 87 211 4.0 9.0 0.00 0.10 0.00 77 1014.6
20260904145002 89 159 2.0 9.0 0.00 0.10 0.00 78 1014.3
20260904144002 87 229 3.0 7.0 0.00 0.10 0.00 78 1014.2
20260904143002 88 202 2.0 6.0 0.00 0.10 0.00 78 1014.1
20260904142004 88 211 3.0 7.0 0.00 0.10 0.00 82 1014.0
20260904140007 87 194 1.0 6.0 0.00 0.10 0.00 83 1013.9
20260904135002 86 219 1.0 7.0 0.00 0.10 0.00 85 1014.1
20260904134004 86 193 1.0 5.0 0.00 0.10 0.00 86 1014.1
20260904133002 85 206 0.0 5.0 0.00 0.10 0.00 86 1013.9
20260904131002 84 181 0.0 3.0 0.00 0.10 0.00 89 1013.8
20260904130006 82 150 0.0 3.0 0.00 0.10 0.00 90 1013.7
20260904125002 82 159 1.0 5.0 0.00 0.10 0.00 91 1013.6
20260904124004 80 114 1.0 5.0 0.00 0.10 0.00 94 1013.5
20260904123002 79 128 1.0 4.0 0.00 0.10 0.00 96 1013.5
20260904122004 79 124 1.0 3.0 0.00 0.10 0.00 96 1013.5
20260904121002 78 126 0.0 0.0 0.00 0.10 0.00 96 1013.5
20260904120005 77 126 0.0 0.0 0.00 0.10 0.00 96 1013.4
20260904114003 76 126 0.0 0.0 0.00 0.10 0.00 96 1013.4
20260904112003 76 126 0.0 0.0 0.00 0.10 0.00 95 1013.1
20260904111001 76 126 0.0 0.0 0.00 0.10 0.00 95 1013.1
20260904110005 76 126 0.0 0.0 0.00 0.10 0.00 95 1013.1
20260904102003 76 126 0.0 0.0 0.00 0.10 0.00 95 1012.8
20260904101001 76 126 0.0 0.0 0.00 0.10 0.00 95 1012.5
20260904100005 76 126 0.0 0.0 0.00 0.10 0.00 95 1012.4
20260904095001 76 126 0.0 0.0 0.00 0.10 0.00 95 1012.2
20260904094001 76 126 0.0 0.0 0.00 0.10 0.00 95 1012.2
20260904093001 76 126 0.0 0.0 0.00 0.10 0.00 95 1012.1
20260904092001 76 126 0.0 0.0 0.00 0.10 0.00 95 1012.0
20260904091001 76 126 0.0 0.0 0.00 0.10 0.00 95 1012.0
20260904090003 76 126 0.0 0.0 0.00 0.10 0.00 94 1012.0
20260904085003 76 126 0.0 0.0 0.00 0.10 0.00 95 1012.1
20260904084001 76 126 0.0 0.0 0.00 0.10 0.00 94 1012.2
20260904083003 76 126 0.0 0.0 0.00 0.10 0.00 94 1012.1
20260904082001 76 126 0.0 0.0 0.00 0.10 0.00 94 1012.0
20260904081003 76 126 0.0 0.0 0.00 0.10 0.00 94 1012.0
20260904080003 76 126 0.0 0.0 0.00 0.10 0.00 94 1012.1
20260904073003 76 126 0.0 0.0 0.00 0.10 0.00 94 1012.0
20260904072001 77 126 0.0 1.0 0.00 0.10 0.00 94 1011.9
20260904071003 77 126 0.0 2.0 0.00 0.10 0.00 94 1011.9
20260904070003 77 126 0.0 0.0 0.00 0.10 0.00 94 1012.0
20260904065000 77 126 0.0 0.0 0.00 0.10 0.00 94 1012.2
20260904064002 77 126 0.0 0.0 0.00 0.10 0.00 94 1012.2
20260904063001 77 126 0.0 0.0 0.00 0.10 0.00 94 1012.2
20260904062003 77 126 0.0 0.0 0.00 0.10 0.00 94 1012.3